Current Version              Previous Version:    01  02  03  04  05  06  07  08  09  10  11  12  13  14  15  16  17  18  19  20  21  22  23  24  25  26  27  28  29  30  
   31  32  33  34  35  36  37  38  39  40  41  42  43  44  45  46  47  48  49  50  51  52  53  54  55  56  57  58  59  60  

[Printable]
123
ASUS44 KFWD 212310
RWRTX
NORTH TEXAS HOURLY WEATHER ROUNDUP
NATIONAL WEATHER SERVICE FORT WORTH TX
600 PM CDT SUN SEP 21 2014

NOTE: "FAIR" INDICATES FEW OR NO CLOUDS BELOW 12,000 FEET WITH NO
SIGNIFICANT WEATHER AND/OR OBSTRUCTIONS TO VISIBILITY.

TXZ118-119-220000-
DALLAS/FORT WORTH METROPLEX

CITY           SKY/WX    TMP DP  RH WIND       PRES   REMARKS
DFW AIRPORT    MOSUNNY   93  60  33 E5        29.99F HX  93
DALLAS LOVE    PTSUNNY   93  58  30 VRB6      29.99F HX  92
FTW MEACHAM    MOSUNNY   91  60  35 E8        30.00S HX  90
DAL-EXECUTIVE  MOSUNNY   94  61  33 E8        30.00S HX  94
FTW-ALLIANCE   MOSUNNY   92  57  30 CALM      30.00F HX  90
FTW-NAS-JRB    SUNNY     96  57  27 CALM      30.04F HX  95
FTW-SPINKS     MOSUNNY   93  57  29 SE6       30.02S HX  92
ARLINGTON      SUNNY     93  57  29 E7        30.00S HX  91
GRAND PRAIRIE  SUNNY     91  55  29 MISG      30.01F
ADDISON        MOSUNNY   91  55  29 E5        30.01
LANCASTER      SUNNY     92  59  32 CALM      30.00F HX  91
$$

TXZ091>094-102>105-117-120-121-131>134-220000-
NORTH CENTRAL TEXAS

CITY           SKY/WX    TMP DP  RH WIND       PRES   REMARKS
SHRMAN/DENISON SUNNY     91  60  36 CALM      30.03S HX  90
GAINESVILLE    SUNNY     89  62  39 CALM      30.04F
BOWIE          MOSUNNY   90  61  37 SE5       30.03F
BRIDGEPORT     SUNNY     91  57  31 NE8       30.03F
DECATUR        SUNNY     89  58  35 NE7       30.03F
DENTON         MOSUNNY   91  62  37 VRB6      30.00F HX  91
MCKINNEY       MOSUNNY   90  62  39 E6        30.00F HX  90
GREENVILLE     MOSUNNY   91  59  33 E6        30.00F HX  90
ROCKWALL       PTSUNNY   91  64  41 CALM      29.99F HX  92
TERRELL        MOSUNNY   94  58  29 E5        30.00S HX  93
WAXAHACHIE     SUNNY     92  53  26 CALM      30.01F
CLEBURNE       SUNNY     93  59  31 E6        30.03S HX  92
GRANBURY       SUNNY     93  57  29 SE9       30.02S HX  92
$$

TXZ083>090-098>101-113>116-127>130-139>142-154-155-220000-
WESTERN NORTH TEXAS

CITY           SKY/WX    TMP DP  RH WIND       PRES   REMARKS
WICHITA FALLS  SUNNY     91  63  39 SE8       30.02S HX  92
WF-KICKAPOO    SUNNY     92  57  31 E7        30.03F HX  90
VERNON         MOSUNNY   93  58  30 E6        30.04S HX  92
ABILENE        MOSUNNY   87  61  41 SE10      30.07R
ABILENE-DYESS  PTSUNNY   88  55  32 SE6       30.05F
BRECKENRIDGE   PTSUNNY   92  55  29 E9        30.03S HX  90
GRAHAM         MOSUNNY   94  56  28 E7        30.00F HX  92
MINERAL WELLS  SUNNY     91  56  30 SE7       30.00F
STEPHENVILLE   PTSUNNY   91  58  32 E8        30.06S
COMANCHE       SUNNY     88  59  36 E6        30.05R
BROWNWOOD      PTSUNNY   84  68  58 SE3       30.05S
COLEMAN        CLOUDY    85  64  48 SE7       30.06S
BRADY          SUNNY     84  63  48 E7        30.06S
$$

TXZ143>147-156>162-174-175-220000-
CENTRAL TEXAS

CITY           SKY/WX    TMP DP  RH WIND       PRES   REMARKS
WACO           MOSUNNY   92  61  35 NE3       30.00S HX  92
WACO-TSTC      MOSUNNY   91  63  38 CALM      29.99F HX  92
WACO-MCGREGOR  SUNNY     93  61  33 SE8       30.01S HX  93
HILLSBORO      SUNNY     91  57  30 E7        30.01S HX  90
CORSICANA      SUNNY     92  61  35 N5        30.00F HX  92
MEXIA          SUNNY     89  64  44 SE7       29.99S HX  90
HEARNE         SUNNY     89  65  45 NE5       30.00S HX  90
CAMERON        SUNNY     90  64  42 E5        29.99S HX  91
TEMPLE         SUNNY     90  61  37 E5        30.01S
KILLEEN        MOSUNNY   88  61  40 E9        30.02S
KILLEEN-SKYLRK SUNNY     88  61  40 E5        30.01S
FORT HOOD      SUNNY     89  62  40 E5        30.02S
GATESVILLE     SUNNY     90  61  37 E6        30.04R
HAMILTON       MOSUNNY   89  61  38 E6        30.05S
LAMPASAS       MOSUNNY   88  68  51 E7        30.03R HX  92
$$

TXZ095>097-106>112-122>126-135>138-148>153-164>167-220000-
EAST TEXAS

CITY           SKY/WX    TMP DP  RH WIND       PRES   REMARKS
PARIS          SUNNY     88  66  48 NE7       30.02S HX  90
SULPHUR SPRNGS SUNNY     91  61  36 NE6       30.02F HX  91
MOUNT PLEASANT SUNNY     89  65  44 NE3       30.02S HX  90
GILMER         SUNNY     90  66  45 NE3       30.01F HX  92
MINEOLA        SUNNY     90  64  43 CALM      30.01S HX  91
TYLER          SUNNY     91  64  40 N5        30.00F HX  92
LONGVIEW       MOSUNNY   92  62  36 N6        29.98S HX  92
MARSHALL       SUNNY     94  62  35 N7        30.00S HX  94
ATHENS         SUNNY     90  63  40 E5        29.99S HX  90
PALESTINE      MOSUNNY   89  66  45 S3        30.00F HX  92
JACKSONVILLE   SUNNY     90  62  38 N3        30.03S HX  90
HENDERSON      MOSUNNY   90  64  42 CALM      30.00S HX  91
NACOGDOCHES    MOSUNNY   90  66  45 CALM      29.99S HX  92
LUFKIN         SUNNY     91  67  44 CALM      29.98F HX  94
$$

SUPPLEMENTAL OBSERVATIONS (CENTRAL)

CITY           SKY/WX    TMP DP  RH WIND       PRES   REMARKS
CADDO GRASSLND   N/A     86  70  58 NE2         N/A  HX  90
PAT MAYSE LAKE   N/A     88  70  55 N5          N/A  HX  92
GREENVILLE       N/A     91  63  38 NE6         N/A  HX  92
CEDAR HILL       N/A     95  55  26 E2          N/A  HX  93
PALESTINE        N/A     91  68  46 CALM        N/A  HX  95
MCGREGOR         N/A     91  59  33 E6          N/A  HX  90
TEMPLE           N/A     90  61  37 E6          N/A
$$

SUPPLEMENTAL OBSERVATIONS (WEST)

CITY           SKY/WX    TMP DP  RH WIND       PRES   REMARKS
MILLERS CREEK    N/A     90  64  43 E6          N/A  HX  91
POSSUM KINGDOM   N/A     91  55  29 E5          N/A
LBJ GRASSLAND    N/A    N/A N/A N/A N5          N/A
GRANBURY         N/A     93  57  29 SE8         N/A  HX  92
HAMBY            N/A     90  59  35 E6          N/A
IVIE RESERVOIR   N/A    N/A N/A N/A E10         N/A
COLORADO BEND    N/A    N/A N/A N/A E9          N/A
$$

SUPPLEMENTAL OBSERVATIONS (EAST)

CITY           SKY/WX    TMP DP  RH WIND       PRES   REMARKS
CLARKSVILLE      N/A     88  70  55 N3          N/A  HX  92
GILMER           N/A     91  64  40 NE5         N/A  HX  93
HENDERSON        N/A     91  64  40 W5          N/A  HX  93
LUFKIN           N/A     91  66  43 MISG        N/A  HX  94
S SABINE NF      N/A     86  70  58 S1          N/A  HX  90
$$

SUPPLEMENTAL OBSERVATIONS ARE A COLLECTION OF AUTOMATED INSTRUMENTS
THAT ARE MAINTAINED BY A VARIETY OF FEDERAL AND STATE AGENCIES.
CERTAIN ELEMENTS...SUCH AS HUMIDITY VALUES AND SUSTAINED WIND
SPEEDS...MAY BE APPROXIMATED.